{"data":{"norad_id":59120,"intl_designator":"2024-043Y","name":"TIGER-8","alt_names":[],"object_type":"PAYLOAD","status":"ACTIVE","operator":null,"country":"RWA","launch_date":"2024-03-04","launch_site_code":"AFWTR","launch_vehicle":null,"mission":null,"orbit_class":"UNKNOWN","rcs_meters":null,"size_class":null,"mass_kg":null,"dimensions":null,"purposes":[],"wikipedia_slug":null,"has_3d_model":false,"image_url":null,"decayed_at":null,"tle_current":{"epoch":"2026-05-24T23:01:16.958784Z","epoch_age_seconds":72494,"freshness":"FRESH","line1":"1 59120U 24043Y   26144.95922406  .00008100  00000+0  17839-3 0  9993","line2":"2 59120  97.5516 292.6848 0006032 289.6811  70.3786 15.44211026124203","mean_motion":15.44211026,"eccentricity":0.0006032,"inclination_deg":97.5516,"raan_deg":292.6848,"arg_perigee_deg":289.6811,"mean_anomaly_deg":70.3786,"bstar":0.00017839,"rev_number":12420,"period_min":93.251503567492,"perigee_km":429.588404619,"apogee_km":437.80620152223,"semimajor_km":6811.8343030706,"source":"CELESTRAK","updated_at":"2026-05-25T13:38:01.192939Z"}}}